Location: Bremen
(53.0793°N, 8.8017°E)
Time: 01:49:24
(UTC+01:00)

deb Explorer IX - Pass Details

Date: 17 December 2021
Orbit: 544 x 1082 km, 38.8° (Epoch: 16 January)

Event Time Altitude Azimuth Distance (km) Brightness Sun altitude
Rises 07:22:22 0° 243° (WSW) 3,710 ? -9.8°
Reaches altitude 10° 07:25:49 10° 228° (SW) 2,673 ? -9.4°
Maximum altitude 07:30:20 21° 183° (S) 1,898 ? -8.8°
Drops below altitude 10° 07:34:27 10° 137° (SE) 2,399 ? -8.2°
Sets 07:37:22 0° 121° (ESE) 3,224 ? -7.8°
